Total_Precipitation_Accumulation
1.33 1.44 1.40 1.35 1.37 1.38 1.30 1.24 1.22 1.21 1.21 1.28 1.35 1.52 1.70 1.93 2.16 2.31 2.31 2.24 2.22 2.18 2.11 2.22 2.36 2.41 2.52 2.56 2.58 2.48 2.36 2.31 2.23 2.01 1.81 1.72 1.93 1.95 1.87 1.74 1.56 1.50 1.49
1.19 1.30 1.42 1.33 1.29 1.32 1.26 1.30 1.20 1.12 1.10 1.13 1.30 1.51 1.62 1.71 1.81 1.92 1.99 2.01 2.02 2.05 2.00 1.97 2.04 2.11 2.23 2.39 2.49 2.47 2.48 2.38 2.31 2.30 2.09 1.85 1.78 1.85 1.91 1.99 1.86 1.60 1.53
1.30 1.40 1.46 1.37 1.34 1.34 1.23 1.30 1.22 1.15 1.13 1.12 1.21 1.37 1.44 1.52 1.58 1.67 1.80 1.90 1.90 1.84 1.84 1.74 1.72 1.81 1.94 2.08 2.15 2.25 2.40 2.44 2.47 2.43 2.35 2.14 1.89 1.88 1.95 2.01 2.02 2.04 1.75
1.54 1.57 1.48 1.42 1.35 1.29 1.20 1.19 1.19 1.17 1.15 1.18 1.30 1.36 1.40 1.40 1.52 1.59 1.68 1.68 1.63 1.54 1.54 1.48 1.47 1.50 1.60 1.76 1.88 2.08 2.27 2.40 2.49 2.50 2.44 2.21 2.02 1.96 1.93 2.00 2.11 2.15 2.09
1.51 1.51 1.49 1.37 1.23 1.16 1.15 1.06 1.10 1.18 1.16 1.22 1.29 1.37 1.42 1.43 1.46 1.53 1.50 1.42 1.40 1.39 1.34 1.18 1.15 1.22 1.25 1.36 1.36 1.63 1.91 2.13 2.26 2.33 2.32 2.17 1.96 1.87 1.73 1.78 1.93 2.11 2.17
1.41 1.37 1.30 1.21 1.19 1.12 1.03 0.97 0.98 1.02 1.06 1.11 1.16 1.33 1.43 1.34 1.50 1.46 1.30 1.18 1.17 1.22 1.20 1.09 1.01 1.04 0.98 0.98 1.01 1.24 1.55 1.71 1.88 2.07 2.13 2.00 1.83 1.76 1.82 1.80 1.81 1.86 1.89
1.19 1.15 1.06 1.01 1.00 1.00 0.94 0.94 0.96 0.96 0.99 1.03 1.02 1.15 1.23 1.33 1.35 1.18 1.19 1.12 1.12 1.13 1.16 1.18 1.07 0.98 1.07 0.95 0.92 1.02 1.11 1.22 1.38 1.65 1.86 1.83 1.93 1.85 1.75 1.67 1.68 1.72 1.71
1.07 1.06 0.99 0.92 0.87 0.88 0.86 0.88 0.95 0.94 0.90 0.93 0.93 0.92 0.98 1.14 1.16 1.02 1.08 1.03 1.13 1.19 1.20 1.29 1.30 1.20 1.17 1.25 1.16 1.15 1.11 1.04 1.14 1.06 1.24 1.62 1.79 1.87 1.82 1.84 1.93 1.85 1.69
0.82 0.87 0.83 0.75 0.78 0.84 0.82 0.92 0.94 0.87 0.87 0.84 0.87 0.87 0.90 0.97 0.99 0.92 0.96 0.99 1.14 1.17 1.11 1.25 1.30 1.22 1.32 1.44 1.48 1.49 1.40 1.21 1.34 1.34 1.22 1.34 1.51 1.58 1.70 1.78 1.83 1.75 1.68
0.59 0.62 0.67 0.65 0.67 0.75 0.83 0.91 0.93 0.87 0.89 0.86 0.81 0.78 0.79 0.80 0.89 0.82 0.92 0.99 1.07 1.11 1.14 1.18 1.36 1.28 1.29 1.28 1.32 1.43 1.39 1.23 1.09 1.10 1.07 0.97 0.90 1.03 1.26 1.39 1.66 1.79 1.73
0.52 0.52 0.55 0.58 0.62 0.73 0.79 0.75 0.75 0.77 0.81 0.81 0.83 0.78 0.75 0.80 0.91 0.91 0.98 0.99 1.05 1.11 1.21 1.24 1.22 1.36 1.22 1.17 1.15 1.12 1.23 1.24 1.22 1.25 1.29 1.16 1.03 0.98 1.02 1.09 1.31 1.57 1.70
0.44 0.48 0.46 0.44 0.46 0.53 0.61 0.69 0.69 0.67 0.69 0.68 0.69 0.68 0.68 0.76 0.84 0.83 0.85 0.91 1.00 1.00 1.05 1.06 1.04 1.18 1.03 0.97 0.91 0.95 1.06 1.13 1.20 1.32 1.31 1.24 1.19 1.12 1.09 1.12 1.19 1.30 1.39
0.45 0.47 0.45 0.43 0.42 0.46 0.54 0.64 0.71 0.73 0.71 0.67 0.61 0.58 0.61 0.65 0.72 0.75 0.73 0.73 0.77 0.78 0.76 0.90 0.96 0.96 0.90 0.82 0.87 0.92 0.95 0.98 1.09 1.18 1.17 1.11 1.13 1.18 1.19 1.18 1.19 1.23 1.22
0.40 0.45 0.45 0.46 0.47 0.47 0.51 0.58 0.72 0.77 0.70 0.63 0.61 0.60 0.62 0.63 0.64 0.64 0.66 0.65 0.65 0.69 0.68 0.75 0.80 0.81 0.81 0.81 0.84 0.88 0.92 0.95 1.02 1.05 1.04 1.05 1.07 1.15 1.22 1.20 1.21 1.27 1.31
0.36 0.40 0.40 0.44 0.49 0.48 0.43 0.46 0.57 0.65 0.69 0.72 0.71 0.70 0.70 0.68 0.64 0.61 0.58 0.62 0.66 0.72 0.79 0.73 0.71 0.72 0.75 0.81 0.84 0.84 0.88 0.93 0.94 0.91 0.95 0.99 0.99 1.05 1.09 1.10 1.14 1.19 1.21
0.36 0.38 0.40 0.43 0.48 0.49 0.45 0.44 0.48 0.52 0.61 0.65 0.66 0.67 0.60 0.56 0.57 0.53 0.52 0.56 0.63 0.70 0.81 0.85 0.86 0.92 0.95 0.94 0.91 0.84 0.80 0.83 0.90 0.97 0.99 1.00 1.00 0.98 1.01 1.04 1.08 1.18 1.19
0.43 0.43 0.44 0.44 0.44 0.45 0.48 0.49 0.49 0.46 0.45 0.48 0.51 0.50 0.50 0.53 0.52 0.52 0.52 0.55 0.58 0.63 0.77 0.92 0.94 0.92 0.89 0.89 0.84 0.78 0.72 0.70 0.75 0.86 0.98 1.07 1.08 1.07 1.10 1.14 1.14 1.10 1.10
0.58 0.59 0.53 0.49 0.48 0.47 0.48 0.52 0.56 0.58 0.51 0.42 0.42 0.44 0.46 0.49 0.50 0.53 0.63 0.68 0.63 0.63 0.74 0.83 0.85 0.83 0.77 0.73 0.68 0.64 0.63 0.62 0.63 0.69 0.74 0.84 1.00 1.12 1.20 1.23 1.26 1.28 1.27
0.55 0.59 0.59 0.58 0.57 0.55 0.55 0.61 0.62 0.57 0.51 0.49 0.45 0.43 0.45 0.48 0.50 0.53 0.57 0.60 0.59 0.59 0.63 0.63 0.61 0.61 0.61 0.59 0.58 0.60 0.65 0.65 0.65 0.67 0.67 0.70 0.81 0.97 1.14 1.24 1.29 1.37 1.36
0.40 0.48 0.55 0.60 0.61 0.60 0.62 0.63 0.63 0.59 0.51 0.49 0.47 0.45 0.46 0.45 0.43 0.45 0.47 0.52 0.58 0.59 0.58 0.57 0.57 0.57 0.56 0.55 0.57 0.60 0.67 0.70 0.67 0.68 0.74 0.78 0.87 0.93 0.98 1.08 1.24 1.30 1.24
0.34 0.36 0.42 0.49 0.54 0.54 0.57 0.60 0.62 0.63 0.58 0.55 0.52 0.50 0.51 0.48 0.49 0.47 0.47 0.52 0.56 0.58 0.58 0.58 0.59 0.58 0.58 0.62 0.63 0.64 0.68 0.71 0.71 0.70 0.73 0.79 0.88 0.97 1.03 1.05 1.08 1.13 1.19
0.35 0.36 0.37 0.41 0.46 0.49 0.53 0.56 0.59 0.62 0.61 0.59 0.58 0.58 0.61 0.55 0.53 0.54 0.55 0.57 0.59 0.60 0.60 0.64 0.67 0.64 0.62 0.65 0.69 0.72 0.73 0.73 0.73 0.75 0.81 0.84 0.87 0.93 1.01 1.09 1.11 1.12 1.15
0.33 0.33 0.35 0.39 0.44 0.47 0.50 0.50 0.53 0.55 0.55 0.55 0.53 0.54 0.54 0.54 0.56 0.57 0.61 0.62 0.62 0.64 0.65 0.71 0.73 0.71 0.69 0.70 0.72 0.74 0.76 0.78 0.79 0.81 0.87 0.90 0.90 0.91 0.97 1.03 1.05 1.07 1.08
0.35 0.36 0.40 0.44 0.44 0.43 0.44 0.47 0.49 0.51 0.53 0.54 0.56 0.58 0.57 0.57 0.57 0.57 0.59 0.60 0.60 0.61 0.62 0.66 0.71 0.73 0.76 0.78 0.80 0.78 0.79 0.84 0.82 0.81 0.90 1.00 1.01 0.98 1.00 1.03 1.04 1.05 1.14
0.41 0.41 0.43 0.46 0.48 0.46 0.44 0.45 0.49 0.53 0.56 0.59 0.62 0.64 0.63 0.62 0.61 0.59 0.59 0.60 0.62 0.62 0.63 0.63 0.67 0.73 0.78 0.84 0.84 0.81 0.91 0.95 0.91 0.84 0.82 0.92 0.98 1.00 1.06 1.10 1.14 1.23 1.35
0.47 0.47 0.49 0.48 0.48 0.50 0.52 0.52 0.52 0.57 0.62 0.65 0.66 0.68 0.68 0.70 0.69 0.68 0.68 0.65 0.64 0.61 0.62 0.66 0.69 0.71 0.74 0.80 0.87 0.94 0.94 0.87 0.88 0.93 0.87 0.87 0.94 0.99 1.11 1.21 1.27 1.39 1.47